�������r�C�����j�^�v���󋵏��
Date,Time,5�C6���@���p�r�C��,����,����(m/s)
2024/05/26,00:00,3.7,��쐼,1.5
2024/05/26,00:10,3.6,��,1.7
2024/05/26,00:20,3.8,��,2.3
2024/05/26,00:30,3.7,��,2.8
2024/05/26,00:40,3.5,��,2.9
2024/05/26,00:50,3.8,��쐼,2.6
2024/05/26,01:00,3.7,��,3.2
2024/05/26,01:10,3.6,��쓌,2.9
2024/05/26,01:20,3.5,��쓌,2.2
2024/05/26,01:30,3.6,��,1.4
2024/05/26,01:40,3.5,��쓌,0.9
2024/05/26,01:50,3.7,��쓌,1.5
2024/05/26,02:00,3.5,��,1.2
2024/05/26,02:10,3.6,��,1.1
2024/05/26,02:20,3.7,��쓌,0.9
2024/05/26,02:30,3.7,��,0.9
2024/05/26,02:40,3.5,��쐼,1.7
2024/05/26,02:50,3.7,�쐼,2.6
2024/05/26,03:00,3.6,��쐼,2.6
2024/05/26,03:10,3.6,��쐼,2.9
2024/05/26,03:20,3.5,��쐼,2.6
2024/05/26,03:30,3.5,��쐼,2.3
2024/05/26,03:40,3.6,��쐼,2.3
2024/05/26,03:50,3.6,��쐼,2.2
2024/05/26,04:00,3.6,�쐼,1.2
2024/05/26,04:10,3.6,��쐼,1.9
2024/05/26,04:20,3.5,��쐼,2.2
2024/05/26,04:30,3.4,��,1.4
2024/05/26,04:40,3.6,��쐼,2.2
2024/05/26,04:50,3.6,��쐼,2.3
2024/05/26,05:00,3.7,��쐼,3.0
2024/05/26,05:10,3.6,��쐼,3.6
2024/05/26,05:20,3.5,��,3.6
2024/05/26,05:30,3.6,��쐼,3.3
2024/05/26,05:40,3.6,��쐼,3.4
2024/05/26,05:50,3.6,��쐼,3.4
2024/05/26,06:00,3.6,��,3.8
2024/05/26,06:10,3.7,��,2.8
2024/05/26,06:20,3.6,��,2.6
2024/05/26,06:30,3.7,��,3.7
2024/05/26,06:40,3.6,��,5.0
2024/05/26,06:50,3.7,��쓌,5.0
2024/05/26,07:00,3.6,��쓌,5.9
2024/05/26,07:10,3.5,��쓌,5.5
2024/05/26,07:20,3.7,��쓌,5.7
2024/05/26,07:30,3.7,��쓌,5.4
2024/05/26,07:40,3.6,��쓌,6.7
2024/05/26,07:50,3.7,��쓌,6.6
2024/05/26,08:00,3.6,��,6.1
2024/05/26,08:10,3.5,��쓌,7.1
2024/05/26,08:20,3.6,��,8.4
2024/05/26,08:30,3.5,��쓌,9.6
2024/05/26,08:40,3.7,��쓌,9.6
2024/05/26,08:50,3.5,��쓌,10.0
2024/05/26,09:00,3.6,��쓌,10.3
2024/05/26,09:10,3.6,��쓌,10.2
2024/05/26,09:20,3.5,��쓌,10.8
2024/05/26,09:30,3.6,��쓌,12.2
2024/05/26,09:40,3.5,��쓌,11.6
2024/05/26,09:50,3.7,��쓌,9.8
2024/05/26,10:00,3.7,��쓌,12.2
2024/05/26,10:10,3.6,��쓌,11.4
2024/05/26,10:20,3.8,��쓌,11.8
2024/05/26,10:30,3.6,��쓌,12.7
2024/05/26,10:40,3.8,��쓌,12.7
2024/05/26,10:50,3.6,��쓌,12.4
2024/05/26,11:00,3.5,��쓌,13.0
2024/05/26,11:10,3.7,��쓌,13.1
2024/05/26,11:20,3.6,��쓌,14.1
2024/05/26,11:30,3.7,��쓌,14.2
2024/05/26,11:40,3.7,��쓌,13.5
2024/05/26,11:50,3.6,��쓌,13.3
2024/05/26,12:00,3.7,��쓌,12.7
2024/05/26,12:10,3.5,��,14.6
2024/05/26,12:20,3.6,��쓌,12.8
2024/05/26,12:30,3.6,��,13.8
2024/05/26,12:40,3.7,��쓌,13.8
2024/05/26,12:50,3.7,��쓌,11.6
2024/05/26,13:00,3.6,��쓌,14.1
2024/05/26,13:10,3.8,��쓌,15.5
2024/05/26,13:20,3.7,��쓌,13.0
2024/05/26,13:30,3.5,��쓌,14.9
2024/05/26,13:40,3.6,��쓌,13.5
2024/05/26,13:50,3.6,��쓌,14.1
2024/05/26,14:00,3.7,��쓌,14.2
2024/05/26,14:10,3.5,��쓌,13.3
2024/05/26,14:20,3.7,��,13.6
2024/05/26,14:30,3.5,��쓌,13.5
2024/05/26,14:40,3.6,��,13.0
2024/05/26,14:50,3.6,��,13.1
2024/05/26,15:00,3.7,��쓌,14.7
2024/05/26,15:10,3.7,��,14.7
2024/05/26,15:20,3.6,��,12.7
2024/05/26,15:30,3.6,��,14.2
2024/05/26,15:40,3.6,��쓌,11.9
2024/05/26,15:50,3.7,��쓌,11.6
2024/05/26,16:00,3.6,��,9.5
2024/05/26,16:10,3.5,��,7.3
2024/05/26,16:20,3.7,��,9.6
2024/05/26,16:30,3.8,��,8.5
2024/05/26,16:40,3.6,��,10.0
2024/05/26,16:50,3.9,��,9.4
2024/05/26,17:00,3.5,��,7.9
2024/05/26,17:10,3.6,��,6.6
2024/05/26,17:20,3.6,��,10.5
2024/05/26,17:30,3.8,��,8.8
2024/05/26,17:40,3.5,��,8.9
2024/05/26,17:50,3.5,��,10.2
2024/05/26,18:00,3.7,��,9.6
2024/05/26,18:10,3.6,��,9.7
2024/05/26,18:20,3.6,��,8.7
2024/05/26,18:30,3.6,��,9.4
2024/05/26,18:40,3.7,��,8.0
2024/05/26,18:50,3.6,��,10.8
2024/05/26,19:00,3.5,��,9.1
2024/05/26,19:10,3.7,��,8.9
2024/05/26,19:20,3.8,��,9.6
2024/05/26,19:30,3.7,��,8.4
2024/05/26,19:40,3.6,��,9.9
2024/05/26,19:50,3.7,��,10.8
2024/05/26,20:00,3.6,��,10.7
2024/05/26,20:10,3.5,��,9.4
2024/05/26,20:20,3.6,��,9.9
2024/05/26,20:30,3.7,��,8.7
2024/05/26,20:40,3.7,��,7.6
2024/05/26,20:50,3.6,��,9.8
2024/05/26,21:00,3.8,��,9.4
2024/05/26,21:10,3.7,��,8.1
2024/05/26,21:20,3.5,��쓌,10.3
2024/05/26,21:30,3.8,��,9.8
2024/05/26,21:40,3.6,��,9.7
2024/05/26,21:50,3.7,��,8.8
2024/05/26,22:00,3.6,��,8.1
2024/05/26,22:10,3.7,��,10.5
2024/05/26,22:20,3.5,��,8.3
2024/05/26,22:30,3.5,��,8.3
2024/05/26,22:40,3.5,��,8.5
2024/05/26,22:50,3.6,��,7.5
2024/05/26,23:00,3.6,��,9.4
2024/05/26,23:10,3.6,��,10.2
2024/05/26,23:20,3.6,��,9.7
2024/05/26,23:30,3.7,��,8.4
2024/05/26,23:40,3.6,��,7.5
2024/05/26,23:50,3.7,��,6.4
